Weather History for Quillayute, WA

Change the Weather History Date:

Wednesday, February 27, 2013

  Actual Average Record
Temperature  
Mean Temperature 44 °F 43 °F  
Max Temperature 50 °F 50 °F 69 °F (1968)
Min Temperature 37 °F 35 °F 24 °F (1971)
Degree Days  
Heating Degree Days 21 22  
Month to date heating degree days 567 618  
Since 1 July heating degree days 3675 3823  
Cooling Degree Days 0 0  
Month to date cooling degree days 0 0  
Year to date cooling degree days 0 0  
Moisture  
Dew Point 37 °F    
Average Humidity 77    
Maximum Humidity 92    
Minimum Humidity 61    
Precipitation  
Precipitation 0.04 in 0.37 in 1.93 in (1967)
Month to date precipitation 10.32 10.00  
Year to date precipitation 20.66 24.61  
Sea Level Pressure  
Sea Level Pressure 30.24 in    
Wind  
Wind Speed 4 mph (East)    
Max Wind Speed 14 mph    
Max Gust Speed 20 mph    
Visibility 4 miles    
Events Rain    
T = Trace of Precipitation, MM = Missing Value Source: NWS Daily Summary

Daily Weather History Graph

Daily Weather History Graph

Search for Another Location

Airport:

Trip Planner

Search our weather history database for the weather conditions in past years. The results will help you decide how hot, cold, wet, or windy it might be!

Date:

Astronomy

Feb. 27, 2013 Rise Set
Actual Time 7:02 AM PST 6:00 PM PST
Civil Twilight 6:31 AM PST 6:31 PM PST
Nautical Twilight 5:55 AM PST 7:07 PM PST
Astronomical Twilight 5:19 AM PST 7:43 PM PST
Moon 8:43 PM PST (2/27) 7:28 AM PST (2/27)
Length of Visible Light 12h 00m
Length of Day
10h 58m
Waning Gibbous, 96% of the Moon is Illuminated
Feb 27
Waning Gibbous
Mar 4
Last Quarter
Mar 11
New
Mar 19
First Quarter
Mar 27
Full

Hourly Weather History & Observations

Time (PST) Temp. Windchill Dew Point Humidity Pressure Visibility Wind Dir Wind Speed Gust Speed Precip Events Conditions
12:32 AM 41.0 °F 39.0 °F 37.4 °F 87% 30.19 in 5.0 mi East 3.5 mph - 0.00 in   Overcast
12:53 AM 39.9 °F 37.8 °F 36.0 °F 86% 30.20 in 5.0 mi East 3.5 mph - 0.00 in   Overcast
1:39 AM 39.2 °F 37.0 °F 37.4 °F 93% 30.21 in 2.0 mi West 3.5 mph - 0.00 in Rain Rain
1:53 AM 39.9 °F 37.8 °F 36.0 °F 86% 30.22 in 4.0 mi East 3.5 mph - 0.01 in Rain Light Rain
2:10 AM 39.2 °F 35.9 °F 35.6 °F 87% 30.20 in 5.0 mi East 4.6 mph - 0.00 in   Overcast
2:53 AM 39.9 °F - 36.0 °F 86% 30.21 in 5.0 mi Calm Calm - 0.00 in   Overcast
3:07 AM 39.2 °F - 35.6 °F 87% 30.21 in 5.0 mi Calm Calm - N/A   Overcast
3:51 AM 39.2 °F 35.9 °F 35.6 °F 87% 30.22 in 6.0 mi ENE 4.6 mph - N/A   Overcast
3:53 AM 39.2 °F 35.9 °F 35.6 °F 87% 30.22 in 6.0 mi East 4.6 mph - N/A   Overcast
4:10 AM 39.2 °F 37.0 °F 35.6 °F 87% 30.23 in 6.0 mi ENE 3.5 mph - N/A   Overcast
4:43 AM 37.4 °F 34.9 °F 33.8 °F 87% 30.24 in 6.0 mi ENE 3.5 mph - N/A   Scattered Clouds
4:53 AM 37.9 °F 34.4 °F 34.0 °F 86% 30.25 in 6.0 mi ENE 4.6 mph - N/A   Partly Cloudy
5:53 AM 37.9 °F - 35.1 °F 89% 30.26 in 6.0 mi Calm Calm - N/A   Partly Cloudy
6:53 AM 37.0 °F 33.3 °F 34.0 °F 89% 30.27 in 5.0 mi ENE 4.6 mph - N/A   Scattered Clouds
7:53 AM 37.9 °F 33.5 °F 34.0 °F 86% 30.26 in 4.0 mi East 5.8 mph - N/A   Scattered Clouds
8:13 AM 39.2 °F 35.0 °F 35.6 °F 87% 30.25 in 4.0 mi East 5.8 mph - N/A   Mostly Cloudy
8:53 AM 41.0 °F 37.1 °F 37.0 °F 86% 30.25 in 4.0 mi East 5.8 mph - N/A   Scattered Clouds
9:53 AM 43.0 °F 41.3 °F 37.9 °F 82% 30.28 in 4.0 mi ENE 3.5 mph - N/A   Haze
10:53 AM 44.1 °F 40.8 °F 39.0 °F 82% 30.27 in 4.0 mi East 5.8 mph - N/A   Haze
11:53 AM 48.9 °F - 39.0 °F 69% 30.28 in 5.0 mi Calm Calm - N/A   Haze
12:53 PM 48.9 °F - 37.0 °F 64% 30.26 in 4.0 mi South 4.6 mph - N/A   Haze
1:53 PM 48.9 °F - 35.1 °F 59% 30.27 in 3.0 mi SSW 3.5 mph - N/A   Haze
2:53 PM 48.0 °F - 37.0 °F 66% 30.25 in 3.0 mi Calm Calm - N/A   Haze
3:29 PM 46.4 °F 42.4 °F 35.6 °F 66% 30.26 in 1.8 mi SSW 8.1 mph 19.6 mph 0.00 in Rain Light Rain
3:44 PM 44.6 °F - 35.6 °F 71% 30.26 in 2.0 mi Calm Calm - 0.01 in Rain Light Rain
3:51 PM 44.6 °F 43.1 °F 35.6 °F 71% 30.26 in 1.5 mi SSE 3.5 mph - 0.02 in Rain Light Rain
3:53 PM 44.1 °F - 37.0 °F 76% 30.27 in 1.5 mi Calm Calm - 0.02 in Rain Light Rain
4:10 PM 44.6 °F 41.4 °F 37.4 °F 76% 30.26 in 2.0 mi NE 5.8 mph - 0.01 in Rain Light Rain
4:18 PM 44.6 °F 40.7 °F 39.2 °F 81% 30.24 in 3.0 mi ENE 6.9 mph - 0.01 in Rain Light Rain
4:53 PM 44.1 °F 40.8 °F 37.9 °F 79% 30.25 in 4.0 mi NNE 5.8 mph - 0.01 in   Haze
5:53 PM 43.0 °F 40.3 °F 37.9 °F 82% 30.23 in 4.0 mi ENE 4.6 mph - N/A   Haze
6:53 PM 43.0 °F 40.3 °F 37.9 °F 82% 30.24 in 6.0 mi East 4.6 mph - N/A   Haze
7:53 PM 42.1 °F 40.2 °F 37.9 °F 85% 30.23 in 6.0 mi East 3.5 mph - N/A   Overcast
8:13 PM 42.8 °F 39.3 °F 37.4 °F 81% 30.22 in 6.0 mi East 5.8 mph - N/A   Haze
8:53 PM 42.1 °F 38.4 °F 37.9 °F 85% 30.23 in 6.0 mi East 5.8 mph - N/A   Overcast
9:53 PM 42.8 °F 38.6 °F 37.4 °F 81% 30.22 in 7.0 mi ENE 6.9 mph - N/A   Overcast
11:31 PM 42.8 °F 38.0 °F 37.4 °F 81% 30.21 in 7.0 mi ENE 8.1 mph - N/A   Overcast
11:53 PM 42.1 °F 37.7 °F 37.0 °F 82% 30.21 in 7.0 mi East 6.9 mph - N/A   Overcast